World > North America > United States > Pennsylvania

Barnesboro, Pennsylvania Regional Weather

Lat: 40.66N, Lon: 78.78W
Wx Zone: PAZ024Web Search
Barnesboro Weather Warning NWS WEATHER ALERT FOR THE BARNESBORO, PA AREA - Issued: 1211 PM EDT Sat May 8 2021 Barnesboro Weather Warning  

Our weather pages are very print friendly and they make great conversation starters.

Feedback


°F Click to change Barnesboro hourly weather to Imperial units.Click to change Barnesboro hourly weather to Metric units. °C
Barnesboro Weather Map
UTC Time: 5/8/2021, 17:03
Your Time:

Barnesboro, PA Regional Weather

Expires:202105081800;;794905
ASUS41 KCTP 081703
RWRCTP

REGIONAL WEATHER ROUNDUP
NATIONAL WEATHER SERVICE STATE COLLEGE PA
100 PM EDT SAT MAY 08 2021

Note: "fair" indicates few or no clouds below 12,000 feet with no 
significant weather and/or obstructions to visibility.

* = STATION THAT DOES NOT REPORT PRECIPITATION /E.G. RAIN...SNOW...ETC/
    THUNDER OR FOG.


PAZ004>006-010>012-017>019-024>028-033>037-041-042-045-046-049>053-081800-
CENTRAL PENNSYLVANIA
  
CITY           SKY/WX    TMP DP  RH WIND       PRES   REMARKS
BRADFORD       CLOUDY    46  32  58 W13G21    29.91S                  
ST MARYS       LGT RAIN  39  39 100 W5        29.95                   
DUBOIS         CLOUDY    41  37  86 W12       29.95R                  
CLEARFIELD     LGT RAIN  44  38  79 W9        29.94S                  
JOHNSTOWN      PTSUNNY   44  35  70 NW15      29.93S                  
SOMERSET       CLOUDY    37  34  87 W13       29.97R                  
ALTOONA        LGT RAIN  43  36  76 NW10      29.95R                  
STATE COLLEGE  CLOUDY    45  37  76 W13       29.93R                  
REEDSVILLE     PTSUNNY   46 N/A N/A W10G21    29.92                   
WELLSBORO      CLOUDY    45  37  76 N10G17    29.88R                  
WILLIAMSPORT   CLOUDY    50  38  63 W12       29.88S                  
SELINSGROVE    CLOUDY    52  42  69 N6        29.90S                  
FT INDIANTOWN  CLOUDY    55  38  54 N5        29.89S                  
CAPITAL CITY   CLOUDY    53  37  54 NW8       29.91S                  
HARRISBURG     PTSUNNY   55  40  56 NW13      29.90S                  
YORK           CLOUDY    52  40  63 NW10      29.91S                  
$$


SKY/WX - Weather  TMP - Temperature  DP - Dew Point  RH - Relative Humidity
WIND - Wind Direction/Speed PRES - Barometric Pressure VSB - Visibility
WCI - Wind Chill Index E13G22 Wind - East Wind 13 mph/Gusts of 22 mph